SL-14 DEB, 47087

Orbit data source: Space-Track

SL-14 DEB, 47087 is space debris in LEO originally from a launch on Thu, 15 Aug 1991 UTC launched from the Plesetsk Missile And Space Complex (PKMTR). Debris objects in space refer to the collection of defunct objects orbiting the Earth. Examples of debris include non-operational satellites, rocket bodies, and fragments generated from explosions, collisions, or faulty payload assembly.

Loading next visibility...
Identifier
47087, 1991-056DM
Orbit
LEO
Last TLE update
1 day ago
Origin
Manufacturer
Unknown
Mission
Spacecraft
Bus & Motor
Unknown
Mass
Unknown
Launch date (UTC)
1991-08-15 (34 years ago)
Launch vehicle
Unknown
Launch site
Plesetsk Missile And Space Complex (PKMTR)
Object type
Payload
Rocket body
Debris
Shape & HBR
Unknown
Radar Cross Section
Small (<0.1 m²)

Expand to show TLE details & history

TLE from 1 day ago
0 SL-14 DEB
1 47087U 91056DM  25198.17137730  .00000118  00000-0  24118-3 0  9990
2 47087  82.6009   6.8726 0061459 155.9541 204.4478 13.24461556227239
Epoch: 2025-07-17T04:06Z
TLE epoch observation values (Epoch: 2025-07-17T04:06:46.998Z)
Latitude
0.00002°
Longitude
9.93576°
Altitude
1,212.82 km
Speed
7.227 km/s
True Right ascension
00h 27m 29s
True Declination
0° 00' 00"
Sunlit
Object was in daylight at epoch
Visualization orbit readout
Latitude
82.19855°
Longitude
79.67984°
Altitude
1,161.889 km
Speed
7.288 km/s
Apparent Right ascension
07h 57m 19s
Apparent Declination
31° 05' 02"
Sunlit
Object is in daylight
Visualization observer readout
Local Sidereal Time
20:30:00
Azimuth
7.379° NNE
Elevation
-18.596°
Doppler factor
1
Orbital elements
Apogee altitude
1,211.318 km
Perigee altitude
1,118.599 km
Semi-major axis
7,543.096 km
Eccentricity
0.00615
Inclination
82.6009°
RAAN
6.8726°
Arg. of periapsis
155.9541°
True anomaly
204.15835°
Mean anomaly
204.4478°
Eccentric anomaly
204.30288°
Mean motion
3.31298 °/min
Orbital period
108.66 mins
BSTAR
0.00024118
Loading maneuver chart data...
Loading SW <> Apogee altitude chart data...
Loading historical data...
Loading historical data...
Loading historical data...
Loading historical data...
Loading historical data...
Loading historical data...
Loading historical data...
|